Location: Colebrook
(42.0017°N, 73.0973°W)
Time: 20:42:54
(UTC-04:00)

Envisat - Pass Details

Date: 01 October 2021
Orbit: 764 x 766 km, 98.2° (Epoch: 22 October)

Event Time Altitude Azimuth Distance (km) Brightness Sun altitude
Rises 06:14:35 0° 11° (N) 3,240 6.4 -7.3°
Reaches altitude 10° 06:16:54 10° 9° (N) 2,309 5.6 -6.9°
Maximum altitude 06:21:59 75° 286° (WNW) 795 3.0 -6.0°
Drops below altitude 10° 06:27:01 10° 201° (SSW) 2,292 5.3 -5.0°
Sets 06:29:19 0° 200° (SSW) 3,214 6.0 -4.6°
